Regional Weather Roundup
Issued by NWS Grand Forks, ND

Home | Current Version | Previous Version | Text Only | Print | Product List | Glossary On
Versions: 1 2 3 4 5 6 7 8 9 10 11 12 13 14 15 16 17 18 19 20 21 22 23 24 25 26 27 28 29 30 31 32 33 34 35 36 37 38 39 40 41 42 43 44 45 46 47 48 49 50
000
ASUS43 KFGF 280831
RWRFGF
PRAIRIE TO PINES  WEATHER ROUNDUP
NATIONAL WEATHER SERVICE EASTERN NORTH DAKOTA/GRAND FORKS ND
300 AM CDT THU MAY 28 2015

 **SATELLITE DATA USED TO AUGMENT SKY COVER AT AUTOMATED STATIONS**
 *****  WEATHER ACROSS EASTERN NORTH DAKOTA  *****

CITY           SKY/WX    TMP DP  RH WIND       PRES   REMARKS
GRAND FORKS    CLOUDY    58  52  80 CALM      29.95S
GRAND FRKS AFB CLOUDY    57  54  88 NE9       29.93F
GRAND FRKS NWS   N/A     57 N/A N/A NE9         N/A
DEVILS LAKE    CLOUDY    57  52  82 E10       29.94F
FARGO          CLOUDY    65  54  67 E9        29.93F
WAHPETON ARPT  CLOUDY    64  52  63 SE6       29.95F
$$

 ***** WEATHER ACROSS CENTRAL AND WESTERN NORTH DAKOTA  *****

CITY           SKY/WX    TMP DP  RH WIND       PRES   REMARKS
BISMARCK       MOCLDY    59  57  93 E7        29.90F
MINOT          CLOUDY    59  56  89 E9        29.90F
JAMESTOWN      LGT RAIN  61  57  87 S9        29.98S
MINOT AFB      LGT RAIN  57  57 100 E9        29.89F
GARRISON         N/A     60  57  89 E5        29.90F
WILLISTON      CLOUDY    58  54  86 SE5       29.88F
DICKINSON      PTCLDY    53  50  89 CALM      29.88F FOG
HETTINGER      FOG       48  47  96 CALM      29.91F VSB 1/4
$$

 *****  OTHER AIRPORT OBSERVATIONS IN OUR AREA  *****

CITY           SKY/WX    TMP DP  RH WIND       PRES   REMARKS
WALHALLA       FAIR      54  54 100 MISG      29.98F
GRAFTON AIRPOR DRIZZLE   57  46  67 N9        29.95F
VALLEY CITY AR LGT RAIN  61  61 100 SW14      29.99S
CANDO          CLOUDY    55  50  82 E8        29.97S
CAVALIER APRT  FAIR      57  45  62 N3        29.97F
GWINNER        NOT AVBL
SHEYENNE NWR     N/A     62  56  80 SE3       29.95S
ROLLA          LGT RAIN  57  57 100 CALM      29.98F
 ***** THE ABOVE OBSERVATIONS ARE NON NWS ARE NOT QUALITY
       CONTROLLED AND MAY MIS-REPORT RAIN FOR SNOW...
$$

  *****  WEATHER ACROSS NORTHERN MINNESOTA  *****

CITY           SKY/WX    TMP DP  RH WIND       PRES   REMARKS
FLAG ISLAND    PTCLDY    57  46  67 E9        30.01F
WARROAD        PTCLDY    57  52  82 E7        30.01F
ROSEAU         MOCLDY    55  48  76 SE7       30.00F
HALLOCK        CLOUDY    59  48  67 CALM      29.98R
THF RVR FALLS  CLOUDY    63  48  59 E10       29.97F
BAUDETTE       CLEAR     51  46  83 E7        30.02S
WASKISH        CLEAR     54  48  82 CALM      30.02F
CROOKSTON      CLOUDY    63  54  72 E10       29.94F
STEPHEN NDAWN    N/A     61  48  63 S6          N/A
GREENBUSH NDAW   N/A     57  48  72 SE7         N/A
$$
  *****  WEATHER ACROSS CENTRAL AND WEST MINNESOTA  *****

CITY           SKY/WX    TMP DP  RH WIND       PRES   REMARKS
FOSSTON        MOCLDY    61  52  72 E6        29.98F
BEMIDJI        CLEAR     49  47  93 CALM      30.01F
PARK RAPIDS    MOCLDY    60  51  72 E3        30.00S
ELBOW LAKE     FAIR      66  53  61 SE7       29.97F
WADENA         MOCLDY    59  54  82 CALM      30.00S
DETROIT LAKES  CLOUDY    63  52  67 CALM      29.99F
MOORHEAD       CLOUDY    64  54  68 E7        29.95F
FERGUS FALLS   LGT RAIN  64  55  72 SE3       29.97F
MORRIS MN      CLOUDY    64  54  68 SE6       29.97F
STAPLES        PTCLDY    54  52  94 CALM      30.01S
$$
  *****  WEATHER ELSEWHERE ACROSS MINNESOTA  *****

CITY           SKY/WX    TMP DP  RH WIND       PRES   REMARKS
DULUTH         CLEAR     55  42  61 E14       30.09R
INTRNTL FALLS  PTCLDY    54  46  74 E7        30.03F
ELY            NOT AVBL
CLOQUET        CLEAR     55  45  67 E7        30.07S
WHEATON        CLOUDY    66  52  59 SE10      29.97F
BRAINERD       CLEAR     54  53  97 CALM      30.02S
HIBBING        CLEAR     49  46  90 CALM      30.06F
ALEXANDRIA     MOCLDY    66  51  58 SE7       30.01F
SAINT CLOUD    CLEAR     54  53  97 CALM      30.01F FOG
MINNEAPOLIS    CLEAR     64  56  75 E3        30.03F
$$

  *****  WEATHER ACROSS SOUTH DAKOTA  *****

CITY           SKY/WX    TMP DP  RH WIND       PRES   REMARKS
SIOUX FALLS    MOCLDY    66  50  56 S9        30.02F
BROOKINGS      MOCLDY    63  50  63 SE7       30.03S
WATERTOWN      CLOUDY    65  53  65 SE7       29.99F
HURON            N/A    N/A N/A N/A MISG      29.96S
SISSETON         N/A     64  56  75 CALM      29.95F
ABERDEEN       CLOUDY    63  58  83 E7        29.94F
MITCHELL       MOCLDY    64  51  62 S8        29.98S
PIERRE         PTCLDY    60  56  86 S10       29.92S
MOBRIDGE       PTCLDY    62  60  93 SE8       29.87F
RAPID CITY     MOCLDY    55  52  89 S6        29.93S
$$

  *****  SOME WEATHER IN NEARBY STATES *****

CITY           SKY/WX    TMP DP  RH WIND       PRES   REMARKS
GLASGOW MT     CLEAR     55  52  89 SE6       29.86F
GREAT FALLS MT MOCLDY    49  46  90 SW6       29.99F
CHEYENNE WY    PTCLDY    51  49  92 W8        30.11R
SCOTTSBLUFF NE MOCLDY    59  53  80 SE5       30.04S
OMAHA NE       CLOUDY    62  53  72 E3        30.06F
DES MOINES IA  CLEAR     65  57  75 S7        30.11R
DAVENPORT IA   CLEAR     61  56  83 S6        30.14S
CHICAGO IL     PTCLDY    59  55  87 SW3       30.16S
EAU CLAIRE WI  CLEAR     57  54  89 CALM      30.06S
LA CROSSE WI   CLEAR     64  60  87 SE8       30.08S
$$

  *****  SOME NATIONAL WEATHER *****

CITY           SKY/WX    TMP DP  RH WIND       PRES   REMARKS
LA GUARDIA NY  MOCLDY    69  62  78 S7        30.12S
RALEIGH NC     PTCLDY    69  67  93 SW8       30.19F
ATLANTA GA     MOCLDY    67  64  90 E7        30.16F
NEW ORLEANS LA PTCLDY    70  67  90 CALM      30.07F
OKLAHOMA CITY  CLOUDY    68  64  87 S6        30.05S
ALBUQUERQUE NM PTCLDY    57  33  40 E8        30.07S
SALT LAKE CITY MOCLDY    55  48  77 CALM      30.11S
LOS ANGELES CA PTCLDY    58  55  90 SW3       29.99F
BOISE ID       CLEAR     56  44  64 SE6       30.03R
SEATTLE WA     CLEAR     60  53  77 W3        30.05R
$$

*** WEATHER ACROSS MANITOBA...SASKATCHEWAN AND ONTARIO ***
                ***ONTARIO***

CITY           SKY/WX    TMP DP  RH WIND       PRES   REMARKS
GERALDTON      CLEAR     36  34  93 NE3       30.20S
THUNDER BAY    CLEAR     43  39  87 E8        30.18R
SIOUX LOOKOUT  PTCLDY    48  39  71 SE6       30.11S
TORONTO        PTCLDY    59  52  77 W10G22    30.05R
BIG TROUT LK   PTCLDY    34  30  86 NE7       30.22R
PICKLE LAKE    NOT AVBL
DRYDEN         CLEAR     48  41  76 E7        30.08S
KENORA         MOCLDY    50  43  76 E8        30.05S
$$
                *** MANITOBA***

CITY           SKY/WX    TMP DP  RH WIND       PRES   REMARKS
BRANDON        LGT RAIN  50  41  71 E9        30.00F
DAUPHIN        MOCLDY    46  37  71 E3        30.01S
ISLAND LAKE    PTCLDY    43  32  65 SE5       30.12F
PILOT MOUND      N/A     54  41  62 E7          N/A
THE PAS        MOCLDY    41  36  81 SE12      29.95F
THOMPSON       CLOUDY    46  30  53 E5        30.05S
WINNIPEG       CLOUDY    50  43  76 E5        30.00F
LYNN LAKE      LGT RAIN  36  34  93 NE10G20   29.98R
CHURCHILL      FLURRIES  30  23  74 N7        30.32R WCI  23
GILLAM         MOCLDY    32  25  74 E7        30.22R
$$
                ***SASKATCHEWAN***

CITY           SKY/WX    TMP DP  RH WIND       PRES   REMARKS
ESTEVAN        LGT RAIN  55  54  94 E7        29.92F FOG
KINDERSLEY     CLOUDY    55  50  82 SW3       29.93R
LLOYDMINSTER   MOCLDY    50  45  81 N13G18    29.99R
PRINCE ALBERT  CLOUDY    46  41  81 NE3       29.87F
REGINA         CLOUDY    54  48  82 N5        29.93F
YORKTON        PTCLDY    48  37  66 SE8       29.95F
N. BATTLEFORD  LGT RAIN  59  52  77 NW9       29.94F
LA RONGE       LGT RAIN  46  45  93 NE12      29.95F
SASKATOON      PTCLDY    54  39  58 S8        29.91S
SWIFT CURRENT  CLOUDY    55  46  71 N5        29.92F
$$
NOTE: THESE ARE AUTOMATED STATIONS WITH LIMITED QUALITY CONTROL
      "FAIR" INDICATES FEW OR NO CLOUDS BELOW 12,000 FEET WITH NO
      SIGNIFICANT WEATHER AND/OR OBSTRUCTIONS TO VISIBILITY.
      SKY/WX - SKY CONDITION AND SIGNIFICANT WEATHER.
      TMP - AIR TEMPERATURE.    DP   - DEWPOINT TEMPERATURE.
      RH  - RELATIVE HUMIDITY.  PRES - PRESSURE.
      HX  - HEAT INDEX.         WCI  - WIND CHILL INDEX.
$



USA.gov is the U.S. government's official web portal to all federal, state and local government web resources and services.